Weather History for Fayetteville, AR

Change the Weather History Date:

Thursday, March 7, 2013

  Actual Average Record
Temperature  
Mean Temperature 44 °F 46 °F  
Max Temperature 61 °F 57 °F 78 °F (1992)
Min Temperature 26 °F 34 °F 9 °F (1967)
Degree Days  
Heating Degree Days 21 20  
Month to date heating degree days 185 143  
Since 1 July heating degree days 3256 3446  
Cooling Degree Days 0 0  
Month to date cooling degree days 0 0  
Year to date cooling degree days 0 0  
Moisture  
Dew Point 26 °F    
Average Humidity 55    
Maximum Humidity 85    
Minimum Humidity 25    
Precipitation  
Precipitation 0.00 in 0.13 in 1.13 in (1998)
Month to date precipitation 0.01 0.84  
Year to date precipitation 5.86 6.49  
Sea Level Pressure  
Sea Level Pressure 30.22 in    
Wind  
Wind Speed 5 mph (SSE)    
Max Wind Speed 15 mph    
Max Gust Speed 21 mph    
Visibility 10 miles    
Events      
T = Trace of Precipitation, MM = Missing Value Source: NWS Daily Summary

Daily Weather History Graph

Daily Weather History Graph

Search for Another Location

Airport:

Trip Planner

Search our weather history database for the weather conditions in past years. The results will help you decide how hot, cold, wet, or windy it might be!

Date:

Astronomy

Mar. 07, 2013 Rise Set
Actual Time 6:38 AM CST 6:17 PM CST
Civil Twilight 6:12 AM CST 6:42 PM CST
Nautical Twilight 5:43 AM CST 7:12 PM CST
Astronomical Twilight 5:13 AM CST 7:42 PM CST
Moon 3:31 AM CST (3/7) 2:12 PM CST (3/7)
Length of Visible Light 12h 30m
Length of Day
11h 39m
Waning Crescent, 20% of the Moon is Illuminated
Mar 7
Waning Crescent
Mar 11
New
Mar 19
First Quarter
Mar 27
Full
Apr 2
Last Quarter

Hourly Weather History & Observations

Time (CST) Temp. Windchill Dew Point Humidity Pressure Visibility Wind Dir Wind Speed Gust Speed Precip Events Conditions
12:53 AM 34.0 °F - 26.1 °F 73% 30.25 in 10.0 mi Calm Calm - N/A   Clear
1:53 AM 35.1 °F - 26.1 °F 70% 30.27 in 10.0 mi Calm Calm - N/A   Clear
2:53 AM 35.1 °F - 27.0 °F 72% 30.27 in 10.0 mi Calm Calm - N/A   Partly Cloudy
3:53 AM 35.1 °F - 27.0 °F 72% 30.26 in 10.0 mi Calm Calm - N/A   Mostly Cloudy
4:53 AM 34.0 °F 29.8 °F 28.0 °F 79% 30.26 in 10.0 mi South 4.6 mph - N/A   Partly Cloudy
5:53 AM 30.9 °F - 26.1 °F 82% 30.27 in 10.0 mi Calm Calm - N/A   Clear
6:53 AM 26.1 °F - 23.0 °F 88% 30.28 in 10.0 mi Calm Calm - N/A   Clear
7:53 AM 34.0 °F - 28.9 °F 82% 30.29 in 10.0 mi Calm Calm - N/A   Clear
8:53 AM 46.9 °F - 26.1 °F 44% 30.28 in 10.0 mi SSE 8.1 mph - N/A   Clear
9:53 AM 51.1 °F - 25.0 °F 36% 30.28 in 10.0 mi South 12.7 mph - N/A   Clear
10:53 AM 53.1 °F - 23.0 °F 31% 30.27 in 10.0 mi SSE 8.1 mph - N/A   Clear
11:53 AM 57.0 °F - 24.1 °F 28% 30.27 in 10.0 mi Variable 5.8 mph - N/A   Clear
12:53 PM 57.9 °F - 23.0 °F 26% 30.24 in 10.0 mi South 13.8 mph 18.4 mph N/A   Clear
1:53 PM 60.1 °F - 24.1 °F 25% 30.20 in 10.0 mi SSW 9.2 mph 20.7 mph N/A   Clear
2:53 PM 61.0 °F - 25.0 °F 25% 30.18 in 10.0 mi SE 10.4 mph - N/A   Clear
3:53 PM 60.1 °F - 24.1 °F 25% 30.17 in 10.0 mi SE 12.7 mph 18.4 mph N/A   Clear
4:53 PM 59.0 °F - 26.1 °F 28% 30.16 in 10.0 mi SSE 8.1 mph - N/A   Clear
5:53 PM 54.0 °F - 28.0 °F 37% 30.17 in 10.0 mi SSE 8.1 mph - N/A   Clear
6:53 PM 53.1 °F - 27.0 °F 37% 30.18 in 10.0 mi SSE 8.1 mph - N/A   Clear
7:53 PM 52.0 °F - 28.0 °F 40% 30.17 in 10.0 mi ESE 4.6 mph - N/A   Clear
8:53 PM 46.9 °F - 28.0 °F 48% 30.17 in 7.0 mi Calm Calm - N/A   Mostly Cloudy
9:06 PM 48.2 °F - 28.4 °F 46% 30.17 in 8.0 mi SSE 4.6 mph - N/A   Scattered Clouds
9:53 PM 50.0 °F - 28.9 °F 44% 30.17 in 6.0 mi SSE 8.1 mph - N/A   Haze
10:53 PM 48.0 °F - 28.9 °F 48% 30.19 in 10.0 mi ESE 4.6 mph - N/A   Clear
11:53 PM 44.1 °F 42.5 °F 28.9 °F 55% 30.20 in 10.0 mi East 3.5 mph - N/A   Clear